| time (UTC) | temp F | wind direction | speed knots | gust knots | rain 1hr in | rain 24hr in | rain mn in | humidity % | barometer mb |
| 20260507010755 | 80 | 0 | 13.0 | 21.7 | 0.00 | 0.00 | 0.00 | 31 | 1012.2 |
| 20260507010256 | 81 | 0 | 13.0 | 20.0 | 0.00 | 0.00 | 0.00 | 30 | 1012.1 |
| 20260507005755 | 81 | 0 | 13.9 | 20.0 | 0.00 | 0.00 | 0.00 | 30 | 1012.2 |
| 20260507005300 | 82 | 0 | 13.9 | 20.9 | 0.00 | 0.00 | 0.00 | 30 | 1012.2 |
| 20260507005256 | 82 | 0 | 13.9 | 20.9 | 0.00 | 0.00 | 0.00 | 30 | 1012.2 |
| 20260507004858 | 82 | 0 | 13.0 | 20.0 | 0.00 | 0.00 | 0.00 | 29 | 1012.1 |
| 20260507003754 | 83 | 0 | 13.0 | 19.1 | 0.00 | 0.00 | 0.00 | 29 | 1012.1 |
| 20260507003254 | 83 | 0 | 13.0 | 19.1 | 0.00 | 0.00 | 0.00 | 28 | 1012.2 |
| 20260507002753 | 83 | 0 | 13.0 | 20.0 | 0.00 | 0.00 | 0.00 | 28 | 1012.1 |
| 20260507002254 | 83 | 0 | 12.2 | 20.0 | 0.00 | 0.00 | 0.00 | 28 | 1012.0 |
| 20260507001758 | 84 | 0 | 11.3 | 18.2 | 0.00 | 0.00 | 0.00 | 28 | 1012.0 |
| 20260507001753 | 84 | 0 | 10.4 | 18.2 | 0.00 | 0.00 | 0.00 | 28 | 1012.0 |
| 20260507001358 | 84 | 0 | 12.2 | 18.2 | 0.00 | 0.00 | 0.00 | 28 | 1012.0 |
| 20260507000254 | 85 | 0 | 11.3 | 17.4 | 0.00 | 0.00 | 0.00 | 27 | 1011.9 |
| 20260506235758 | 86 | 0 | 3.5 | 12.2 | 0.00 | 0.00 | 0.00 | 24 | 1011.9 |
| 20260506235754 | 85 | 0 | 7.8 | 17.4 | 0.00 | 0.00 | 0.00 | 26 | 1011.9 |
| 20260506234754 | 85 | 0 | 2.6 | 5.2 | 0.00 | 0.00 | 0.00 | 19 | 1011.8 |
| 20260506234258 | 85 | 0 | 7.8 | 13.0 | 0.00 | 0.00 | 0.00 | 20 | 1011.9 |
| 20260506234254 | 85 | 0 | 4.3 | 9.6 | 0.00 | 0.00 | 0.00 | 19 | 1011.8 |
| 20260506233254 | 85 | 0 | 7.0 | 13.0 | 0.00 | 0.00 | 0.00 | 19 | 1011.8 |
| 20260506232754 | 84 | 0 | 7.8 | 13.9 | 0.00 | 0.00 | 0.00 | 19 | 1011.8 |
| 20260506232254 | 85 | 0 | 7.8 | 13.9 | 0.00 | 0.00 | 0.00 | 19 | 1012.0 |
| 20260506231758 | 85 | 0 | 5.2 | 12.2 | 0.00 | 0.00 | 0.00 | 19 | 1012.0 |
| 20260506231754 | 85 | 0 | 7.0 | 13.0 | 0.00 | 0.00 | 0.00 | 19 | 1011.9 |
| 20260506230754 | 85 | 0 | 4.3 | 8.7 | 0.00 | 0.00 | 0.00 | 20 | 1012.0 |
| 20260506230253 | 85 | 116 | 3.5 | 7.8 | 0.00 | 0.00 | 0.00 | 20 | 1012.1 |
| 20260506225754 | 84 | 0 | 4.3 | 9.6 | 0.00 | 0.00 | 0.00 | 20 | 1012.1 |
| 20260506225254 | 84 | 0 | 7.0 | 12.2 | 0.00 | 0.00 | 0.00 | 20 | 1012.2 |
| 20260506224754 | 84 | 0 | 6.1 | 12.2 | 0.00 | 0.00 | 0.00 | 20 | 1012.3 |
| 20260506224253 | 84 | 0 | 4.3 | 8.7 | 0.00 | 0.00 | 0.00 | 20 | 1012.3 |
| 20260506223754 | 84 | 0 | 5.2 | 9.6 | 0.00 | 0.00 | 0.00 | 20 | 1012.3 |
| 20260506223254 | 84 | 0 | 6.1 | 12.2 | 0.00 | 0.00 | 0.00 | 21 | 1012.4 |
| 20260506222753 | 84 | 0 | 6.1 | 12.2 | 0.00 | 0.00 | 0.00 | 21 | 1012.5 |
| 20260506222254 | 83 | 0 | 6.1 | 10.4 | 0.00 | 0.00 | 0.00 | 21 | 1012.5 |
| 20260506221754 | 83 | 0 | 7.8 | 15.6 | 0.00 | 0.00 | 0.00 | 21 | 1012.5 |
| 20260506221253 | 83 | 0 | 9.6 | 17.4 | 0.00 | 0.00 | 0.00 | 21 | 1012.6 |
| 20260506220758 | 83 | 0 | 9.6 | 13.9 | 0.00 | 0.00 | 0.00 | 21 | 1012.8 |
| 20260506220754 | 83 | 0 | 10.4 | 17.4 | 0.00 | 0.00 | 0.00 | 21 | 1012.7 |
| 20260506220358 | 83 | 0 | 8.7 | 13.9 | 0.00 | 0.00 | 0.00 | 21 | 1012.9 |
| 20260506215253 | 84 | 0 | 6.1 | 13.9 | 0.00 | 0.00 | 0.00 | 21 | 1012.9 |
| 20260506214754 | 83 | 0 | 4.3 | 11.3 | 0.00 | 0.00 | 0.00 | 21 | 1013.1 |
| 20260506214253 | 83 | 0 | 3.5 | 10.4 | 0.00 | 0.00 | 0.00 | 22 | 1013.2 |
| 20260506213754 | 83 | 0 | 2.6 | 11.3 | 0.00 | 0.00 | 0.00 | 22 | 1013.2 |
| 20260506213253 | 83 | 0 | 4.3 | 11.3 | 0.00 | 0.00 | 0.00 | 22 | 1013.3 |
| 20260506212753 | 83 | 0 | 5.2 | 12.2 | 0.00 | 0.00 | 0.00 | 22 | 1013.4 |
| 20260506212257 | 81 | 0 | 4.3 | 12.2 | 0.00 | 0.00 | 0.00 | 24 | 1013.5 |
| 20260506212251 | 82 | 0 | 4.3 | 12.2 | 0.00 | 0.00 | 0.00 | 22 | 1013.4 |
| 20260506211752 | 82 | 0 | 3.5 | 8.7 | 0.00 | 0.00 | 0.00 | 23 | 1013.4 |
| 20260506210752 | 81 | 0 | 6.1 | 12.2 | 0.00 | 0.00 | 0.00 | 24 | 1013.5 |
| 20260506210251 | 81 | 0 | 6.1 | 11.3 | 0.00 | 0.00 | 0.00 | 25 | 1013.5 |
| 20260506205752 | 81 | 0 | 4.3 | 11.3 | 0.00 | 0.00 | 0.00 | 24 | 1013.6 |
| 20260506205252 | 81 | 0 | 3.5 | 8.7 | 0.00 | 0.00 | 0.00 | 26 | 1013.6 |
| 20260506204754 | 80 | 0 | 5.2 | 8.7 | 0.00 | 0.00 | 0.00 | 27 | 1013.7 |
| 20260506204750 | 80 | 0 | 4.3 | 7.8 | 0.00 | 0.00 | 0.00 | 26 | 1013.7 |
| 20260506203749 | 80 | 0 | 6.1 | 12.2 | 0.00 | 0.00 | 0.00 | 27 | 1013.8 |
| 20260506203247 | 81 | 0 | 4.3 | 12.2 | 0.00 | 0.00 | 0.00 | 27 | 1013.8 |
| 20260506202748 | 81 | 113 | 2.6 | 10.4 | 0.00 | 0.00 | 0.00 | 27 | 1013.9 |
| 20260506202245 | 80 | 0 | 3.5 | 7.8 | 0.00 | 0.00 | 0.00 | 27 | 1013.9 |
| 20260506201742 | 80 | 0 | 4.3 | 7.8 | 0.00 | 0.00 | 0.00 | 28 | 1013.8 |
| 20260506201241 | 79 | 0 | 3.5 | 7.0 | 0.00 | 0.00 | 0.00 | 28 | 1013.9 |
| 20260506200746 | 79 | 0 | 4.3 | 8.7 | 0.00 | 0.00 | 0.00 | 28 | 1014.0 |
| 20260506200742 | 79 | 108 | 3.5 | 8.7 | 0.00 | 0.00 | 0.00 | 28 | 1014.0 |
| 20260506200345 | 79 | 0 | 2.6 | 7.8 | 0.00 | 0.00 | 0.00 | 28 | 1014.1 |
| 20260506195241 | 79 | 94 | 2.6 | 8.7 | 0.00 | 0.00 | 0.00 | 28 | 1014.1 |
| 20260506194741 | 78 | 0 | 3.5 | 8.7 | 0.00 | 0.00 | 0.00 | 29 | 1014.2 |
| 20260506194241 | 78 | 0 | 3.5 | 9.6 | 0.00 | 0.00 | 0.00 | 29 | 1014.2 |
| 20260506193741 | 78 | 0 | 4.3 | 9.6 | 0.00 | 0.00 | 0.00 | 29 | 1014.3 |
| 20260506193241 | 77 | 0 | 4.3 | 8.7 | 0.00 | 0.00 | 0.00 | 30 | 1014.4 |
| 20260506192741 | 77 | 0 | 2.6 | 8.7 | 0.00 | 0.00 | 0.00 | 30 | 1014.4 |
| 20260506192241 | 76 | 0 | 2.6 | 4.3 | 0.00 | 0.00 | 0.00 | 30 | 1014.5 |
| 20260506191740 | 76 | 0 | 2.6 | 9.6 | 0.00 | 0.00 | 0.00 | 31 | 1014.5 |
| 20260506191243 | 76 | 0 | 4.3 | 8.7 | 0.00 | 0.00 | 0.00 | 31 | 1014.8 |
| 20260506191239 | 76 | 0 | 3.5 | 9.6 | 0.00 | 0.00 | 0.00 | 31 | 1014.7 |
| 20260506190243 | 76 | 0 | 3.5 | 10.4 | 0.00 | 0.00 | 0.00 | 31 | 1014.9 |
| 20260506190239 | 76 | 0 | 5.2 | 10.4 | 0.00 | 0.00 | 0.00 | 32 | 1014.8 |
| 20260506185237 | 75 | 0 | 4.3 | 9.6 | 0.00 | 0.00 | 0.00 | 32 | 1014.9 |
| 20260506184738 | 75 | 0 | 6.1 | 12.2 | 0.00 | 0.00 | 0.00 | 34 | 1014.9 |
| 20260506184242 | 73 | 0 | 4.3 | 8.7 | 0.00 | 0.00 | 0.00 | 35 | 1015.0 |
| 20260506184238 | 74 | 0 | 5.2 | 12.2 | 0.00 | 0.00 | 0.00 | 34 | 1015.0 |
| 20260506183240 | 73 | 0 | 3.5 | 9.6 | 0.00 | 0.00 | 0.00 | 35 | 1015.2 |
| 20260506183235 | 73 | 58 | 4.3 | 8.7 | 0.00 | 0.00 | 0.00 | 35 | 1015.1 |
| 20260506182235 | 73 | 0 | 2.6 | 9.6 | 0.00 | 0.00 | 0.00 | 36 | 1015.1 |
| 20260506181735 | 72 | 0 | 2.6 | 7.0 | 0.00 | 0.00 | 0.00 | 36 | 1015.2 |
| 20260506181236 | 72 | 0 | 3.5 | 7.0 | 0.00 | 0.00 | 0.00 | 37 | 1015.2 |
| 20260506180735 | 72 | 0 | 3.5 | 7.8 | 0.00 | 0.00 | 0.00 | 37 | 1015.3 |
| 20260506180234 | 72 | 0 | 2.6 | 7.8 | 0.00 | 0.00 | 0.00 | 37 | 1015.3 |
| 20260506175733 | 72 | 136 | 2.6 | 7.0 | 0.00 | 0.00 | 0.00 | 37 | 1015.4 |
| 20260506175233 | 72 | 0 | 2.6 | 4.3 | 0.00 | 0.00 | 0.00 | 37 | 1015.4 |
| 20260506174733 | 71 | 0 | 1.7 | 5.2 | 0.00 | 0.00 | 0.00 | 39 | 1015.4 |
| 20260506174233 | 70 | 0 | 2.6 | 5.2 | 0.00 | 0.00 | 0.00 | 39 | 1015.4 |
| 20260506173733 | 69 | 0 | 2.6 | 5.2 | 0.00 | 0.00 | 0.00 | 39 | 1015.4 |
| 20260506173237 | 69 | 0 | 2.6 | 7.8 | 0.00 | 0.00 | 0.00 | 40 | 1015.5 |
| 20260506173233 | 69 | 0 | 3.5 | 7.8 | 0.00 | 0.00 | 0.00 | 40 | 1015.4 |
| 20260506172234 | 69 | 0 | 1.7 | 7.8 | 0.00 | 0.00 | 0.00 | 41 | 1015.5 |
| 20260506171733 | 68 | 0 | 1.7 | 4.3 | 0.00 | 0.00 | 0.00 | 41 | 1015.5 |
| 20260506171231 | 68 | 0 | 2.6 | 5.2 | 0.00 | 0.00 | 0.00 | 43 | 1015.6 |
| 20260506170731 | 67 | 0 | 2.6 | 5.2 | 0.00 | 0.00 | 0.00 | 43 | 1015.5 |
| 20260506170235 | 66 | 0 | 3.5 | 7.0 | 0.00 | 0.00 | 0.00 | 44 | 1015.5 |
| 20260506170231 | 67 | 0 | 2.6 | 7.0 | 0.00 | 0.00 | 0.00 | 44 | 1015.5 |
| 20260506165836 | 65 | 0 | 3.5 | 4.3 | 0.00 | 0.00 | 0.00 | 44 | 1015.6 |
| 20260506164731 | 65 | 0 | 2.6 | 4.3 | 0.00 | 0.00 | 0.00 | 45 | 1015.6 |
| 20260506164231 | 65 | 0 | 2.6 | 7.0 | 0.00 | 0.00 | 0.00 | 46 | 1015.6 |
| 20260506163732 | 64 | 0 | 3.5 | 7.0 | 0.00 | 0.00 | 0.00 | 46 | 1015.7 |
| 20260506163236 | 64 | 0 | 3.5 | 7.0 | 0.00 | 0.00 | 0.00 | 47 | 1015.7 |
| 20260506162735 | 63 | 0 | 2.6 | 7.0 | 0.00 | 0.00 | 0.00 | 48 | 1015.7 |
| 20260506162730 | 64 | 0 | 3.5 | 7.0 | 0.00 | 0.00 | 0.00 | 47 | 1015.7 |
| 20260506161729 | 63 | 0 | 2.6 | 7.0 | 0.00 | 0.00 | 0.00 | 49 | 1015.7 |
| 20260506161229 | 62 | 0 | 3.5 | 7.0 | 0.00 | 0.00 | 0.00 | 51 | 1015.7 |
| 20260506160729 | 62 | 0 | 3.5 | 7.0 | 0.00 | 0.00 | 0.00 | 52 | 1015.8 |
| 20260506160229 | 61 | 0 | 3.5 | 7.0 | 0.00 | 0.00 | 0.00 | 53 | 1015.8 |
| 20260506155730 | 61 | 0 | 3.5 | 7.8 | 0.00 | 0.00 | 0.00 | 53 | 1015.7 |
| 20260506155229 | 60 | 0 | 3.5 | 7.8 | 0.00 | 0.00 | 0.00 | 54 | 1015.7 |
| 20260506154735 | 59 | 0 | 2.6 | 5.2 | 0.00 | 0.00 | 0.00 | 56 | 1015.7 |
| 20260506154728 | 60 | 117 | 3.5 | 6.1 | 0.00 | 0.00 | 0.00 | 55 | 1015.7 |
| 20260506154229 | 60 | 116 | 2.6 | 6.1 | 0.00 | 0.00 | 0.00 | 55 | 1015.7 |
| 20260506153227 | 59 | 0 | 2.6 | 4.3 | 0.00 | 0.00 | 0.00 | 57 | 1015.7 |
| 20260506152727 | 58 | 0 | 3.5 | 7.0 | 0.00 | 0.00 | 0.00 | 58 | 1015.7 |
| 20260506152225 | 58 | 0 | 2.6 | 7.0 | 0.00 | 0.00 | 0.00 | 59 | 1015.6 |
| 20260506151723 | 57 | 113 | 2.6 | 7.0 | 0.00 | 0.00 | 0.00 | 60 | 1015.6 |
| 20260506151227 | 56 | 0 | 3.5 | 7.0 | 0.00 | 0.00 | 0.00 | 62 | 1015.7 |
| 20260506151223 | 56 | 0 | 3.5 | 7.0 | 0.00 | 0.00 | 0.00 | 61 | 1015.6 |
| 20260506150223 | 55 | 109 | 3.5 | 7.0 | 0.00 | 0.00 | 0.00 | 63 | 1015.6 |
| 20260506145728 | 55 | 0 | 3.5 | 7.0 | 0.00 | 0.00 | 0.00 | 63 | 1015.6 |
| 20260506145222 | 54 | 0 | 4.3 | 7.0 | 0.00 | 0.00 | 0.00 | 64 | 1015.5 |
| 20260506144723 | 54 | 0 | 3.5 | 7.8 | 0.00 | 0.00 | 0.00 | 64 | 1015.6 |
| 20260506144223 | 53 | 87 | 3.5 | 7.8 | 0.00 | 0.00 | 0.00 | 66 | 1015.5 |
| 20260506143722 | 53 | 0 | 3.5 | 7.0 | 0.00 | 0.00 | 0.00 | 67 | 1015.5 |
| 20260506143227 | 52 | 0 | 2.6 | 5.2 | 0.00 | 0.00 | 0.00 | 68 | 1015.5 |
| 20260506143223 | 52 | 0 | 3.5 | 5.2 | 0.00 | 0.00 | 0.00 | 67 | 1015.4 |
| 20260506142221 | 51 | 96 | 1.7 | 5.2 | 0.00 | 0.00 | 0.00 | 68 | 1015.4 |
| 20260506141719 | 51 | 0 | 1.7 | 2.6 | 0.00 | 0.00 | 0.00 | 69 | 1015.3 |
| 20260506141223 | 50 | 92 | 3.5 | 8.7 | 0.00 | 0.00 | 0.00 | 70 | 1015.1 |
| 20260506141219 | 50 | 92 | 2.6 | 6.1 | 0.00 | 0.00 | 0.00 | 70 | 1015.2 |
| 20260506140824 | 50 | 91 | 3.5 | 8.7 | 0.00 | 0.00 | 0.00 | 69 | 1015.2 |
| 20260506135720 | 50 | 88 | 2.6 | 6.1 | 0.00 | 0.00 | 0.00 | 72 | 1015.1 |
| 20260506135219 | 49 | 88 | 2.6 | 6.1 | 0.00 | 0.00 | 0.00 | 71 | 1015.0 |
| 20260506134716 | 49 | 89 | 1.7 | 6.1 | 0.00 | 0.00 | 0.00 | 71 | 1015.0 |
| 20260506134218 | 49 | 84 | 3.5 | 8.7 | 0.00 | 0.00 | 0.00 | 71 | 1015.0 |
| 20260506133721 | 50 | 0 | 4.3 | 8.7 | 0.00 | 0.00 | 0.00 | 68 | 1014.9 |
| 20260506133716 | 49 | 89 | 5.2 | 8.7 | 0.00 | 0.00 | 0.00 | 70 | 1014.9 |
| 20260506133322 | 51 | 0 | 3.5 | 8.7 | 0.00 | 0.00 | 0.00 | 67 | 1014.5 |
| 20260506132716 | 50 | 0 | 3.5 | 8.7 | 0.00 | 0.00 | 0.00 | 68 | 1014.7 |
| 20260506131717 | 51 | 133 | 3.5 | 8.7 | 0.00 | 0.00 | 0.00 | 65 | 1014.5 |
| 20260506131216 | 53 | 0 | 7.8 | 18.2 | 0.00 | 0.00 | 0.00 | 61 | 1014.5 |
| 20260506130717 | 57 | 0 | 12.2 | 22.6 | 0.00 | 0.00 | 0.00 | 60 | 1014.4 |
| 20260506130217 | 56 | 0 | 13.9 | 22.6 | 0.00 | 0.00 | 0.00 | 60 | 1014.1 |
| 20260506125716 | 57 | 0 | 13.0 | 20.9 | 0.00 | 0.00 | 0.00 | 59 | 1014.1 |
| 20260506125217 | 57 | 0 | 11.3 | 19.1 | 0.00 | 0.00 | 0.00 | 59 | 1014.1 |
| 20260506124716 | 57 | 0 | 10.4 | 18.2 | 0.00 | 0.00 | 0.00 | 58 | 1014.0 |
| 20260506124217 | 57 | 0 | 11.3 | 18.2 | 0.00 | 0.00 | 0.00 | 59 | 1014.1 |
| 20260506123822 | 56 | 0 | 12.2 | 21.7 | 0.00 | 0.00 | 0.00 | 60 | 1013.9 |
| 20260506123721 | 57 | 0 | 12.2 | 20.9 | 0.00 | 0.00 | 0.00 | 60 | 1013.8 |
| 20260506123717 | 56 | 0 | 12.2 | 20.9 | 0.00 | 0.00 | 0.00 | 60 | 1014.0 |
| 20260506122216 | 57 | 0 | 13.0 | 22.6 | 0.00 | 0.00 | 0.00 | 60 | 1013.9 |
| 20260506121717 | 57 | 0 | 13.0 | 22.6 | 0.00 | 0.00 | 0.00 | 60 | 1013.9 |
| 20260506121217 | 56 | 0 | 12.2 | 17.4 | 0.00 | 0.00 | 0.00 | 61 | 1013.9 |
| 20260506120722 | 56 | 0 | 11.3 | 18.2 | 0.00 | 0.00 | 0.00 | 59 | 1013.8 |
| 20260506120717 | 56 | 0 | 12.2 | 18.2 | 0.00 | 0.00 | 0.00 | 61 | 1013.8 |
| 20260506115716 | 57 | 0 | 12.2 | 23.5 | 0.00 | 0.00 | 0.00 | 58 | 1013.8 |
| 20260506115217 | 57 | 0 | 11.3 | 23.5 | 0.00 | 0.00 | 0.00 | 58 | 1013.8 |
| 20260506114716 | 56 | 0 | 10.4 | 21.7 | 0.00 | 0.00 | 0.00 | 60 | 1013.7 |
| 20260506114217 | 56 | 0 | 13.9 | 24.3 | 0.00 | 0.00 | 0.00 | 61 | 1013.8 |
| 20260506113716 | 56 | 0 | 14.8 | 24.3 | 0.00 | 0.00 | 0.00 | 60 | 1013.7 |
| 20260506113217 | 56 | 0 | 13.0 | 21.7 | 0.00 | 0.00 | 0.00 | 60 | 1013.6 |
| 20260506112720 | 57 | 0 | 11.3 | 19.1 | 0.00 | 0.00 | 0.00 | 58 | 1013.8 |
| 20260506112716 | 56 | 0 | 12.2 | 20.9 | 0.00 | 0.00 | 0.00 | 60 | 1013.7 |
| 20260506111716 | 57 | 0 | 12.2 | 20.0 | 0.00 | 0.00 | 0.00 | 60 | 1013.8 |
| 20260506111217 | 56 | 0 | 13.9 | 21.7 | 0.00 | 0.00 | 0.00 | 61 | 1013.7 |
| 20260506110717 | 56 | 0 | 13.0 | 21.7 | 0.00 | 0.00 | 0.00 | 61 | 1013.7 |
| 20260506110216 | 57 | 0 | 12.2 | 20.0 | 0.00 | 0.00 | 0.00 | 58 | 1013.6 |
| 20260506105717 | 57 | 0 | 12.2 | 20.0 | 0.00 | 0.00 | 0.00 | 58 | 1013.6 |
| 20260506105216 | 57 | 0 | 11.3 | 19.1 | 0.00 | 0.00 | 0.00 | 58 | 1013.6 |
| 20260506104721 | 57 | 0 | 12.2 | 18.2 | 0.00 | 0.00 | 0.00 | 59 | 1013.5 |
| 20260506104717 | 57 | 0 | 11.3 | 18.2 | 0.00 | 0.00 | 0.00 | 58 | 1013.5 |
| 20260506103717 | 57 | 0 | 12.2 | 18.2 | 0.00 | 0.00 | 0.00 | 61 | 1013.5 |
| 20260506103220 | 57 | 0 | 12.2 | 22.6 | 0.00 | 0.00 | 0.00 | 59 | 1013.6 |
| 20260506103216 | 56 | 0 | 13.0 | 22.6 | 0.00 | 0.00 | 0.00 | 60 | 1013.6 |
| 20260506102217 | 57 | 0 | 11.3 | 22.6 | 0.00 | 0.00 | 0.00 | 57 | 1013.4 |
| 20260506101716 | 57 | 0 | 11.3 | 17.4 | 0.00 | 0.00 | 0.00 | 58 | 1013.5 |
| 20260506101217 | 57 | 0 | 13.0 | 20.0 | 0.00 | 0.00 | 0.00 | 60 | 1013.3 |
| 20260506100716 | 57 | 0 | 12.2 | 20.0 | 0.00 | 0.00 | 0.00 | 60 | 1013.4 |
| 20260506100217 | 56 | 0 | 11.3 | 18.2 | 0.00 | 0.00 | 0.00 | 60 | 1013.4 |
| 20260506095717 | 57 | 0 | 12.2 | 20.0 | 0.00 | 0.00 | 0.00 | 60 | 1013.5 |
| 20260506095216 | 57 | 0 | 12.2 | 20.0 | 0.00 | 0.00 | 0.00 | 59 | 1013.4 |
| 20260506094717 | 57 | 0 | 13.0 | 20.9 | 0.00 | 0.00 | 0.00 | 58 | 1013.4 |
| 20260506094215 | 57 | 0 | 13.0 | 20.9 | 0.00 | 0.00 | 0.00 | 59 | 1013.4 |
| 20260506093721 | 57 | 0 | 13.0 | 20.0 | 0.00 | 0.00 | 0.00 | 59 | 1013.3 |
| 20260506093717 | 57 | 224 | 13.0 | 19.1 | 0.00 | 0.00 | 0.00 | 58 | 1013.3 |
| 20260506092716 | 57 | 0 | 13.0 | 20.0 | 0.00 | 0.00 | 0.00 | 60 | 1013.3 |
| 20260506092217 | 57 | 0 | 13.0 | 20.0 | 0.00 | 0.00 | 0.00 | 59 | 1013.3 |
| 20260506091714 | 57 | 0 | 13.0 | 20.0 | 0.00 | 0.00 | 0.00 | 57 | 1013.2 |
| 20260506091214 | 58 | 0 | 13.0 | 20.0 | 0.00 | 0.00 | 0.00 | 55 | 1013.3 |
| 20260506090715 | 58 | 0 | 12.2 | 20.0 | 0.00 | 0.00 | 0.00 | 57 | 1013.4 |
| 20260506090212 | 57 | 0 | 12.2 | 20.0 | 0.00 | 0.00 | 0.00 | 59 | 1013.3 |
| 20260506085711 | 57 | 0 | 13.0 | 20.0 | 0.00 | 0.00 | 0.00 | 60 | 1013.3 |
| 20260506085210 | 57 | 267 | 12.2 | 20.0 | 0.00 | 0.00 | 0.00 | 59 | 1013.4 |
| 20260506084710 | 57 | 0 | 12.2 | 22.6 | 0.00 | 0.00 | 0.00 | 58 | 1013.4 |
| 20260506084210 | 58 | 0 | 13.0 | 22.6 | 0.00 | 0.00 | 0.00 | 57 | 1013.4 |
| 20260506083710 | 58 | 0 | 12.2 | 18.2 | 0.00 | 0.00 | 0.00 | 57 | 1013.5 |
| 20260506083208 | 58 | 0 | 12.2 | 18.2 | 0.00 | 0.00 | 0.00 | 57 | 1013.4 |
| 20260506082708 | 57 | 0 | 13.0 | 18.2 | 0.00 | 0.00 | 0.00 | 58 | 1013.4 |
| 20260506082208 | 57 | 0 | 12.2 | 20.0 | 0.00 | 0.00 | 0.00 | 58 | 1013.3 |
| 20260506081707 | 57 | 0 | 12.2 | 20.0 | 0.00 | 0.00 | 0.00 | 58 | 1013.4 |
| 20260506081206 | 57 | 0 | 13.0 | 20.0 | 0.00 | 0.00 | 0.00 | 58 | 1013.5 |
| 20260506080721 | 58 | 0 | 13.9 | 20.9 | 0.00 | 0.00 | 0.00 | 57 | 1013.3 |
| 20260506080706 | 58 | 0 | 13.0 | 20.9 | 0.00 | 0.00 | 0.00 | 57 | 1013.4 |
| 20260506072700 | 58 | 0 | 13.0 | 20.9 | 0.00 | 0.00 | 0.00 | 57 | 1013.2 |
| 20260506072200 | 58 | 0 | 12.2 | 20.0 | 0.00 | 0.00 | 0.00 | 57 | 1013.2 |
| 20260506071700 | 58 | 0 | 13.0 | 18.2 | 0.00 | 0.00 | 0.00 | 57 | 1013.2 |
| 20260506071203 | 58 | 0 | 13.9 | 20.9 | 0.00 | 0.00 | 0.00 | 57 | 1013.1 |
| 20260506071158 | 58 | 0 | 13.0 | 20.9 | 0.00 | 0.00 | 0.00 | 57 | 1013.2 |
| 20260506070159 | 58 | 0 | 14.8 | 21.7 | 0.00 | 0.00 | 0.00 | 57 | 1012.9 |
| 20260506062156 | 58 | 0 | 11.3 | 18.2 | 0.00 | 0.00 | 0.00 | 55 | 1012.5 |
| 20260506061658 | 58 | 0 | 12.2 | 19.1 | 0.00 | 0.00 | 0.00 | 55 | 1012.5 |
| 20260506061156 | 58 | 0 | 13.0 | 25.2 | 0.00 | 0.00 | 0.00 | 55 | 1012.5 |
| 20260506060654 | 58 | 0 | 13.9 | 25.2 | 0.00 | 0.00 | 0.00 | 56 | 1012.4 |
| 20260506060154 | 58 | 0 | 14.8 | 25.2 | 0.00 | 0.00 | 0.00 | 56 | 1012.3 |
| 20260506051150 | 58 | 0 | 15.6 | 25.2 | 0.00 | 0.00 | 0.00 | 56 | 1011.9 |
| 20260506050648 | 58 | 0 | 14.8 | 23.5 | 0.00 | 0.00 | 0.00 | 56 | 1011.8 |
| 20260506050149 | 58 | 0 | 13.9 | 23.5 | 0.00 | 0.00 | 0.00 | 56 | 1011.8 |
| 20260506044648 | 58 | 0 | 13.9 | 20.9 | 0.00 | 0.00 | 0.00 | 57 | 1011.6 |
| 20260506044149 | 58 | 0 | 14.8 | 21.7 | 0.00 | 0.00 | 0.00 | 57 | 1011.6 |
| 20260506043648 | 58 | 0 | 14.8 | 21.7 | 0.00 | 0.00 | 0.00 | 57 | 1011.5 |
| 20260506043148 | 58 | 0 | 13.9 | 21.7 | 0.00 | 0.00 | 0.00 | 57 | 1011.5 |
| 20260506042646 | 58 | 0 | 13.9 | 23.5 | 0.00 | 0.00 | 0.00 | 58 | 1011.5 |
| 20260506042146 | 58 | 0 | 13.9 | 23.5 | 0.00 | 0.00 | 0.00 | 58 | 1011.2 |
| 20260506041647 | 58 | 0 | 14.8 | 20.9 | 0.00 | 0.00 | 0.00 | 58 | 1011.2 |
| 20260506041146 | 58 | 0 | 14.8 | 23.5 | 0.00 | 0.00 | 0.00 | 59 | 1011.1 |
| 20260506040646 | 57 | 0 | 14.8 | 23.5 | 0.00 | 0.00 | 0.00 | 60 | 1011.1 |
| 20260506040147 | 57 | 0 | 14.8 | 20.9 | 0.00 | 0.00 | 0.00 | 60 | 1011.0 |
| 20260506035646 | 57 | 0 | 15.6 | 23.5 | 0.00 | 0.00 | 0.00 | 60 | 1010.9 |
| 20260506035147 | 58 | 0 | 16.5 | 26.1 | 0.00 | 0.00 | 0.00 | 59 | 1011.0 |
| 20260506034650 | 58 | 0 | 14.8 | 23.5 | 0.00 | 0.00 | 0.00 | 59 | 1010.7 |
| 20260506034646 | 58 | 0 | 15.6 | 26.1 | 0.00 | 0.00 | 0.00 | 59 | 1010.9 |
| 20260506033644 | 58 | 0 | 15.6 | 25.2 | 0.00 | 0.00 | 0.00 | 59 | 1010.7 |
| 20260506033144 | 58 | 0 | 16.5 | 25.2 | 0.00 | 0.00 | 0.00 | 58 | 1010.6 |
| 20260506032644 | 58 | 0 | 15.6 | 25.2 | 0.00 | 0.00 | 0.00 | 58 | 1010.5 |
| 20260506032144 | 58 | 0 | 13.9 | 20.9 | 0.00 | 0.00 | 0.00 | 59 | 1010.5 |
| 20260506031649 | 58 | 0 | 15.6 | 23.5 | 0.00 | 0.00 | 0.00 | 58 | 1010.3 |
| 20260506031644 | 58 | 0 | 14.8 | 22.6 | 0.00 | 0.00 | 0.00 | 58 | 1010.5 |
| 20260506030649 | 58 | 0 | 15.6 | 25.2 | 0.00 | 0.00 | 0.00 | 58 | 1010.2 |
| 20260506030644 | 58 | 0 | 13.9 | 23.5 | 0.00 | 0.00 | 0.00 | 58 | 1010.2 |
| 20260506025644 | 58 | 0 | 15.6 | 25.2 | 0.00 | 0.00 | 0.00 | 57 | 1010.2 |
| 20260506025146 | 58 | 0 | 15.6 | 26.1 | 0.00 | 0.00 | 0.00 | 57 | 1010.0 |
| 20260506025142 | 58 | 0 | 17.4 | 26.1 | 0.00 | 0.00 | 0.00 | 57 | 1009.9 |
| 20260506024746 | 59 | 0 | 18.2 | 26.1 | 0.00 | 0.00 | 0.00 | 57 | 1009.9 |
| 20260506023642 | 59 | 0 | 17.4 | 26.9 | 0.00 | 0.00 | 0.00 | 56 | 1009.9 |
| 20260506023142 | 59 | 0 | 14.8 | 26.9 | 0.00 | 0.00 | 0.00 | 56 | 1009.8 |
| 20260506022642 | 59 | 0 | 15.6 | 26.9 | 0.00 | 0.00 | 0.00 | 56 | 1009.6 |
| 20260506022142 | 59 | 0 | 15.6 | 26.9 | 0.00 | 0.00 | 0.00 | 56 | 1009.9 |
| 20260506021642 | 60 | 0 | 14.8 | 23.5 | 0.00 | 0.00 | 0.00 | 55 | 1009.6 |
| 20260506021142 | 60 | 0 | 16.5 | 23.5 | 0.00 | 0.00 | 0.00 | 55 | 1009.5 |
| 20260506020641 | 60 | 0 | 16.5 | 24.3 | 0.00 | 0.00 | 0.00 | 55 | 1009.5 |
| 20260506020142 | 60 | 0 | 15.6 | 25.2 | 0.00 | 0.00 | 0.00 | 55 | 1009.3 |
| 20260506015642 | 60 | 0 | 15.6 | 25.2 | 0.00 | 0.00 | 0.00 | 54 | 1009.4 |
| 20260506015142 | 61 | 0 | 15.6 | 25.2 | 0.00 | 0.00 | 0.00 | 54 | 1009.4 |
| 20260506014642 | 60 | 0 | 15.6 | 27.8 | 0.00 | 0.00 | 0.00 | 55 | 1009.3 |
| 20260506014142 | 61 | 0 | 16.5 | 27.8 | 0.00 | 0.00 | 0.00 | 54 | 1009.2 |
| 20260506013642 | 61 | 0 | 16.5 | 25.2 | 0.00 | 0.00 | 0.00 | 54 | 1009.2 |
| 20260506013142 | 61 | 0 | 16.5 | 26.1 | 0.00 | 0.00 | 0.00 | 53 | 1009.0 |
| 20260506012643 | 61 | 0 | 16.5 | 26.9 | 0.00 | 0.00 | 0.00 | 52 | 1009.1 |
| 20260506012142 | 62 | 0 | 17.4 | 26.9 | 0.00 | 0.00 | 0.00 | 52 | 1009.0 |
| 20260506011641 | 62 | 0 | 17.4 | 27.8 | 0.00 | 0.00 | 0.00 | 52 | 1008.9 |